Regional Weather Roundup
Issued by NWS

Home | Current Version | Previous Version | Graphics & Text | Print | Product List | Glossary Off
Versions: 1 2 3 4 5 6 7 8 9 10 11 12 13 14 15 16 17 18 19 20 21 22 23 24 25 26 27 28 29 30 31 32 33 34 35 36 37 38 39 40 41 42 43 44 45 46 47 48 49 50

000
ASUS43 KMKX 251200
RWRWI

WISCONSIN REGIONAL WEATHER ROUNDUP
NATIONAL WEATHER SERVICE MILWAUKEE/SULLIVAN WI
700 AM CDT TUE JUL 25 2017

NOTE: "FAIR" INDICATES FEW OR NO CLOUDS BELOW 12,000 FEET WITH NO
SIGNIFICANT WEATHER AND/OR OBSTRUCTIONS TO VISIBILITY.

WIZ001-002-006>008-014>016-023>028-251300-
NORTHWEST WISCONSIN

CITY           SKY/WX    TMP DP  RH WIND       PRES   REMARKS
SUPERIOR ARPT  NOT AVBL
ASHLAND        CLOUDY    59  57  93 SE3       30.08S
6HR MIN TEMP:  47; 6HR MAX TEMP:  59;

HAYWARD        LGT RAIN  62  58  86 S6        30.09F
6HR MIN TEMP:  56; 6HR MAX TEMP:  63; 6HR PCP: TRACE;

SIREN          CLOUDY    64  60  86 S7        30.05F
CUMBERLAND     CLOUDY    61  59  94 S6        30.09R
RICE LAKE      CLOUDY    63  59  88 SE13      30.09F
CHETEK         CLOUDY    62  60  94 SE9       30.12R
LADYSMITH      LGT RAIN  61  58  92 SE7       30.14F
EAU CLAIRE     NOT AVBL
MENOMONIE      CLOUDY    62  60  93 E3        30.11R
NEW RICHMOND   MOSUNNY   64  60  89 S8        30.07S
OSCEOLA        CLOUDY    65  65 100 SE3       30.09R
$$

WIZ003>005-009-010-017-018-251300-
NORTH CENTRAL WISCONSIN

CITY           SKY/WX    TMP DP  RH WIND       PRES   REMARKS
MANITOWISH WTR MOSUNNY   58  57  97 S7        30.15R
ARBOR VITAE    MOSUNNY   59  54  83 S5        30.15S
WOODRUFF       MOSUNNY   59  54  83 S5        30.15S
RHINELANDER    CLOUDY    55  53  93 SE3       30.17S
6HR MIN TEMP:  50; 6HR MAX TEMP:  60;

EAGLE RIVER    MOSUNNY   53  52  98 S3        30.17R
LAND O LAKES   CLOUDY    48  48 100 CALM      30.18S
PHILLIPS       CLOUDY    58  55  88 S8        30.15R
6HR MIN TEMP:  58; 6HR MAX TEMP:  60;

TOMAHAWK         N/A     55  53  94 CALM      30.17S
MEDFORD        CLOUDY    58  53  83 S5        30.16R
MERRILL        PTSUNNY   57  54  91 SE3       30.16F
6HR MIN TEMP:  48; 6HR MAX TEMP:  61;

$$

WIZ029-030-035-036-043>047-251300-
CENTRAL WISCONSIN

CITY           SKY/WX    TMP DP  RH WIND       PRES   REMARKS
WAUSAU         PTSUNNY   57  52  83 E7        30.14F
6HR MIN TEMP:  54; 6HR MAX TEMP:  60;

MOSINEE        PTSUNNY   55  54  94 SE5       30.16S
MARSHFIELD     CLOUDY    58  54  86 S6        30.16R
6HR MIN TEMP:  54; 6HR MAX TEMP:  60;

STEVENS POINT  MOSUNNY   51  50  99 CALM      30.18R
WAUPACA        CLOUDY    54  53  97 CALM      30.18R
WAUTOMA        PTSUNNY   52  50  93 CALM      30.18S
6HR MIN TEMP:  49; 6HR MAX TEMP:  56;

WISC RAPIDS    MOSUNNY   57  54  89 SE5       30.17R
6HR MIN TEMP:  52; 6HR MAX TEMP:  61;

CAMP DOUGLAS   NOT AVBL
$$

WIZ011>013-019>022-031-037>040-048>050-251300-
NORTHEAST WISCONSIN

CITY           SKY/WX    TMP DP  RH WIND       PRES   REMARKS
ANTIGO         MOSUNNY   53  51  92 S5        30.19R
SHAWANO        PTSUNNY   56  55  93 CALM      30.18R
OCONTO         PTSUNNY   54  53  95 CALM      30.18R
STURGEON BAY     N/A     62  58  86 MISG      30.19R
6HR MIN TEMP:  53; 6HR MAX TEMP:  62;

GREEN BAY      CLOUDY    57  56  96 CALM      30.19R
6HR MIN TEMP:  52; 6HR MAX TEMP:  57;

MANITOWOC      NOT AVBL
APPLETON       MOSUNNY   61  50  67 S7        30.18R
CLINTONVILLE   CLOUDY   N/A N/A N/A CALM      30.18R
OSHKOSH        CLOUDY    57  52  83 S5        30.18R
6HR MIN TEMP:  51; 6HR MAX TEMP:  60;

$$

WIZ032>034-041-042-053>061-251300-
SOUTHWEST WISCONSIN

CITY           SKY/WX    TMP DP  RH WIND       PRES   REMARKS
LA CROSSE      CLOUDY    66  59  78 S8        30.13R
6HR MIN TEMP:  63; 6HR MAX TEMP:  66;

SPARTA         MOSUNNY   60  56  88 S5        30.14S
VIROQUA        CLOUDY    59  59 100 CALM      30.14F
BOSCOBEL       SUNNY     61  59  93 CALM      30.16R
6HR MIN TEMP:  56; 6HR MAX TEMP:  61;

PRAIRIE DU CHI MOSUNNY   61  58  90 SE3       30.15R
PLATTEVILLE    SUNNY     58  58 100 E5        30.17R
$$

WIZ056-057-062-063-064-067-068-251300-
SOUTH CENTRAL WISCONSIN

CITY           SKY/WX    TMP DP  RH WIND       PRES   REMARKS
REEDSBURG      CLOUDY    56  56 100 SE3       30.16S
BARABOO/DELLS  CLOUDY    56  53  92 CALM      30.17S
LONE ROCK      NOT AVBL
MINERAL POINT  SUNNY     59  59 100 SE5       30.17R FOG
MADISON        MOSUNNY   59  56  89 SE3       30.17S
6HR MIN TEMP:  52; 6HR MAX TEMP:  61;

MIDDLETON      SUNNY     54  54 100 CALM      30.18S
WATERTOWN      CLOUDY    55  55 100 CALM      30.18R
MONROE         SUNNY     59  57  94 SE3       30.17R
JANESVILLE     MOSUNNY   59  59 100 CALM      30.17S
$$

WIZ051-052-058>065-066-070>072-251300-
SOUTHEAST WISCONSIN

CITY           SKY/WX    TMP DP  RH WIND       PRES   REMARKS
MILWAUKEE      MOSUNNY   64  58  80 CALM      30.19R
6HR MIN TEMP:  58; 6HR MAX TEMP:  64;

WAUKESHA       SUNNY     55  55 100 CALM      30.20R
MILWAUKEE/TIMM SUNNY     55  52  88 CALM      30.20R
RACINE         SUNNY     61  59  93 CALM      30.21R
6HR MIN TEMP:  56; 6HR MAX TEMP:  61;

KENOSHA        SUNNY     61  59  93 CALM      30.19R
6HR MIN TEMP:  53; 6HR MAX TEMP:  61;

FOND DU LAC    SUNNY     56  51  84 SE3       30.19R
6HR MIN TEMP:  51; 6HR MAX TEMP:  56;

SHEBOYGAN      MOSUNNY   57  56  96 CALM      30.19R
6HR MIN TEMP:  49; 6HR MAX TEMP:  57;

WEST BEND      SUNNY     52  52 100 CALM      30.19R
JUNEAU         SUNNY     55  52  92 CALM      30.20S
$$

LSZ147-162-251300-
LAKE SUPERIOR

STATION/POSITION TIME  TEMP    WIND        PRES    WAVE
                       AIR SEA DIR/SP/G            HT/PER
                 (UTC) (F)     (DEG/KT/KT) (MB)    (FT/S)
W MID LAKE BUOY  1050   55 49  200/  8/  8 1018.9R   0
DEVILS ISLAND    1100   62     160/  8/ 11 1018.2S
SAXON HARBOR     1130   60     110/  3/  5 1018.6R
$$

LMZ867-665-643>646-251300-
LAKE MICHIGAN

STATION/POSITION TIME  TEMP    WIND        PRES    WAVE
                       AIR SEA DIR/SP/G            HT/PER
                 (UTC) (F)     (DEG/KT/KT) (MB)    (FT/S)
CHAMBERS ISLAND  1140   62     140/  2/  4 1021.7R
S GREEN BAY BUOY 1130   66 72  130/  8/ 10 1021.3R
N MID LAKE BUOY  1050   66 66  130/  2/  4 1022.5R   0
NORTHPORT PIER   1140   62     150/  3/  5 1021.7R
KEWAUNEE LAKESHO 1124   55     310/  3/  4 1020.8
SHEBOYGAN LAKESH 1100   61     240/  4/  4 1021.3S
PORT WASHINGTON  1140   63     260/  3/  4 1022.7R
ATWATER BUOY     1009   63 68  290/  2/  4 1021.6R
MILWAUKEE LAKESH 1130   66     310/  1/  1   N/A
S MID LAKE BUOY  1050   70 71  110/  6/  8 1021.9R   2/ 6
KENOSHA   LAKESH 1100   63     260/  2/  3 1021.7
$$

TC  - TEMPERATURE IN CELSIUS
VSB - VISIBILITY IN STATUTE MILES
WCI - WIND CHILL INDEX
HX  - HEAT INDEX





USA.gov is the U.S. government's official web portal to all federal, state and local government web resources and services.